Home > Weather > Passaic > Past weeks

Flag for USA Weather for the Past 2 Weeks in Passaic, New Jersey, USA

Now
45 °F

Drizzle. Fog.


Feels Like: 43 °F
Forecast: 48 / 62 °F
Wind: 5 mph from East

Location: Teterboro Airport

Current Time: May 1, 2016 at 10:32:27 PM

Latest Report: May 1, 2016 at 9:51 PM


Visibility: 3 mi

Pressure: 30.08 "Hg

Humidity: 86%

Dew Point: 41 °F

Location of PassaicLocation

Historic Weather in Passaic — Graph

°F

Passaic Temperature Yesterday

Maximum temperature yesterday: 62 °F (at 2:51 PM)
Minimum temperature yesterday: 47 °F (at 1:51 AM)
Average temperature yesterday: 53 °F

High & Low Weather Summary for the Past Weeks

 TemperatureHumidityPressure
High82 °F (Apr 22, 2:51 PM)88% (Apr 26, 6:01 AM)30.45 "Hg (Apr 26, 6:01 AM)
Low41 °F (Apr 17, 5:51 AM)8% (Apr 20, 3:51 PM)29.63 "Hg (Apr 26, 2:51 PM)
Average58 °F48%30.04 "Hg
* Reported Apr 16 8:51 PM — May 1 8:51 PM, Passaic, Weather by CustomWeather, © 2016

Note: Actual official high and low records may vary slightly from our data, if they occured in-between our weather recording intervals... More about our weather records

Advertising

Passaic Weather History for the Previous 24 Hours

Scroll right to see more
 ConditionsComfort  
Time TempWeatherWind HumidityBarometerVisibility
8:51 PM
Sun, May 1
46 °FDrizzle. Low clouds.8 mph83%30.11 "Hg4 mi
7:51 PM47 °FDrizzle. Fog.6 mph86%30.09 "Hg3 mi
6:51 PM48 °FDrizzle. Fog.7 mph86%30.09 "Hg2 mi
5:58 PM48 °FLight rain. Fog.5 mph87%30.10 "Hg2 mi
4:51 PM50 °FLight rain. Overcast.6 mph74%30.11 "Hg10 mi
3:51 PM49 °FLight rain. Overcast.7 mph74%30.13 "Hg4 mi
2:58 PM48 °FOvercast.10 mph82%30.13 "Hg10 mi
1:51 PM48 °FMostly cloudy.10 mph77%30.15 "Hg10 mi
12:51 PM49 °FLight rain. Mostly cloudy.9 mph74%30.16 "Hg5 mi
11:51 AM49 °FLight rain. Mostly cloudy.6 mph77%30.17 "Hg4 mi
10:51 AM49 °FLight rain. More clouds than sun.3 mph77%30.19 "Hg7 mi
9:51 AM48 °FLight rain. Mostly cloudy.No wind71%30.20 "Hg5 mi
8:51 AM48 °FLight rain. Overcast.5 mph66%30.22 "Hg8 mi
7:51 AM50 °FLight rain. Overcast.6 mph66%30.20 "Hg10 mi
6:51 AM51 °FOvercast.5 mph54%30.19 "Hg10 mi
5:51 AM50 °FLight rain. Overcast.No wind57%30.18 "Hg10 mi
4:51 AM50 °FLight rain. Overcast.3 mph57%30.18 "Hg10 mi
3:51 AM50 °FLight rain. Overcast.3 mph59%30.19 "Hg10 mi
2:51 AM50 °FPassing clouds.3 mph61%30.19 "Hg10 mi
1:51 AM50 °FClear.5 mph57%30.20 "Hg10 mi
12:51 AM51 °FClear.5 mph56%30.22 "Hg10 mi
11:51 PM
Sat, Apr 30
51 °FClear.5 mph56%30.22 "Hg10 mi
10:51 PM51 °FClear.No wind52%30.22 "Hg10 mi
Weather by CustomWeather, © 2016

See weather overviewHow to use our weather pages